[[{"header":{"parameterUnit":"m.s-1","parameterCategory":1,"la1":30.2991,"la2":30.254,"lo1":-89.0895,"lo2":-89.0444,"dy":0.0017,"dx":0.0017,"nx":28,"ny":28,"refTime":"2024-03-26T09:00:00:Z","depth":0,"parameterNumber":2,"parameterNumberName":"U-component_of_WINDS"},"data":[0,0,0,0,0,0,0,0,0,0,0,0,0,0,0,0,0,0,0,0,0,0,0,0,0,0,0,0,0,0,0,0,0,0,0,0,0,0,0,0,0,0,0,0,0,0,0,0,0,0,0,0,0,0,0,0,0,0,1.2224,1.2224,0,1.2206,1.2206,1.2205,1.2167,1.2166,1.2165,1.2165,1.2145,1.2145,1.2145,0,0,0,0,0,0,0,0,0,0,0,0,0,1.2227,1.2227,1.2224,1.2224,1.2224,1.2206,1.2206,1.2205,1.2167,1.2166,1.2165,1.2164,1.2145,1.2145,1.2145,0,0,0,0,0,0,0,0,0,0,0,0,0,1.2219,1.2227,1.2224,1.2203,1.2201,1.2206,1.2206,1.2205,1.2167,1.2166,1.2165,1.2164,1.2145,1.2145,1.2145,1.217,0,0,1.2146,1.2146,0,0,0,0,0,0,0,0,1.222,1.2219,1.2206,1.2204,1.2202,1.2188,1.2199,1.2193,1.2168,1.218,1.2165,1.2163,1.216,1.2159,1.2158,1.2169,1.2168,1.2146,1.2146,1.2146,1.2147,0,0,0,0,0,0,0,1.222,1.222,1.2217,1.2206,1.2203,1.2194,1.2192,1.2198,1.2177,1.2179,1.2176,1.2174,1.2159,1.2158,1.2157,1.2168,1.2146,1.2146,1.2147,1.2147,1.2199,1.22,0,0,0,0,0,0,1.2224,1.222,1.2218,1.2216,1.2208,1.2195,1.2192,1.2193,1.2176,1.2173,1.2175,1.2173,1.2158,1.2157,1.2156,1.2184,1.2146,1.2147,1.2147,1.2198,1.2199,1.2201,0,0,0,0,0,0,1.2224,1.2224,1.2218,1.2218,1.2216,1.2196,1.2198,1.2194,1.2193,1.2174,1.217,1.2178,1.2157,1.2156,1.2167,1.2183,1.2147,1.2147,1.2196,1.2198,1.22,1.224,0,0,0,0,0,0,1.2224,1.2224,1.2233,1.2218,1.2216,1.2229,1.2199,1.2194,1.2193,1.219,1.2176,1.2172,1.2156,1.2167,1.2167,1.2183,1.2147,1.2195,1.2197,1.2199,1.2237,1.2243,1.2248,0,0,0,0,0,1.2225,1.2245,1.2234,1.2234,1.2227,1.223,1.2229,1.221,1.2195,1.2204,1.2192,1.2173,1.2182,1.2168,1.2169,1.2184,1.2194,1.2197,1.2199,1.2235,1.2242,1.2248,0,0,0,0,0,0,1.2262,1.2243,1.223,1.2246,1.224,1.2224,1.2234,1.2219,1.2217,1.2213,1.219,1.2187,1.2201,1.2194,1.218,1.2208,1.2185,1.2188,1.2212,1.2218,1.2224,1.2225,1.2148,0,0,0,0,0,1.2272,1.2277,1.2259,1.2275,1.2273,1.2255,1.2255,1.2241,1.2234,1.2231,1.222,1.2214,1.2215,1.2216,1.2217,1.2237,1.2233,1.2248,1.2253,1.2258,1.226,1.2271,1.2277,1.221,1.221,1.221,0,0,1.2293,1.2283,1.2287,1.2283,1.2276,1.2281,1.2253,1.2259,1.2262,1.2232,1.2242,1.2234,1.2225,1.2241,1.2248,1.2236,1.2278,1.2261,1.2265,1.2265,1.2274,1.2281,1.2286,1.2212,1.2211,1.2211,0,0,1.2334,1.2327,1.2339,1.2334,1.2325,1.2313,1.2316,1.2303,1.2296,1.2306,1.2284,1.2288,1.2291,1.2286,1.2283,1.2324,1.2306,1.2325,1.2353,1.2364,1.2369,1.2373,1.2388,1.2393,1.2328,1.2328,1.2328,0,1.2361,1.2367,1.2348,1.2356,1.2355,1.2329,1.2341,1.2337,1.2329,1.2329,1.2316,1.2319,1.2312,1.2326,1.2336,1.2336,1.2339,1.2326,1.237,1.2374,1.2378,1.2392,1.2397,1.233,1.233,1.233,1.2329,0,1.2401,1.2406,1.2418,1.2411,1.2411,1.2422,1.2404,1.2407,1.2393,1.2383,1.2393,1.2384,1.2382,1.2384,1.2371,1.2397,1.239,1.2374,1.235,1.2387,1.2399,1.2404,1.2333,1.2333,1.2332,1.2331,0,0,1.2463,1.2447,1.2451,1.2448,1.2437,1.2441,1.2451,1.2449,1.2452,1.2448,1.2455,1.2459,1.2444,1.2442,1.2428,1.2438,1.2471,1.242,1.242,1.243,1.2499,1.2511,1.2518,1.246,1.2461,1.2461,1.25,0,1.2501,1.2516,1.25,1.2518,1.2523,1.2499,1.2508,1.2502,1.2493,1.2496,1.2486,1.2489,1.2469,1.2468,1.2476,1.2465,1.2484,1.2462,1.2466,1.2467,1.2468,1.2524,1.2536,1.2573,1.2505,1.2506,1.2506,0,1.2546,1.2545,1.2564,1.2553,1.2555,1.2563,1.256,1.2564,1.2557,1.255,1.2548,1.2532,1.2541,1.2519,1.2531,1.2517,1.2518,1.2513,1.2514,1.2513,1.2488,1.2524,1.2585,1.259,1.2514,1.2513,1.2512,0,1.2589,1.2592,1.2604,1.2603,1.259,1.2596,1.2591,1.2584,1.2585,1.2583,1.2583,1.2583,1.2582,1.2583,1.2567,1.2552,1.2581,1.2558,1.2575,1.2576,1.2582,1.2581,1.2643,1.2584,1.2583,1.2583,1.2583,0,1.2632,1.2645,1.2624,1.2631,1.2645,1.2627,1.2641,1.2634,1.2628,1.2633,1.2613,1.2619,1.2598,1.2602,1.259,1.2602,1.2602,1.2596,1.2593,1.2598,1.2599,1.2597,1.2594,1.2585,1.2585,1.2584,1.2584,0,1.2682,1.2668,1.268,1.2668,1.2665,1.2676,1.2665,1.2672,1.2662,1.267,1.2671,1.2655,1.2659,1.2644,1.2644,1.2636,1.2654,1.2647,1.2657,1.2654,1.2672,1.2671,1.2735,1.2742,1.2679,1.268,1.268,0,1.271,1.2719,1.2709,1.2711,1.2708,1.2712,1.2713,1.2696,1.2697,1.2692,1.2699,1.2701,1.2702,1.2709,1.2698,1.2698,1.269,1.2713,1.269,1.2695,1.269,1.269,1.2691,1.2717,1.2718,1.2719,1.2719,0,1.2761,1.2754,1.2756,1.2756,1.2758,1.2757,1.2755,1.2758,1.274,1.2743,1.2747,1.2747,1.2749,1.2751,1.275,1.2745,1.2729,1.2727,1.2731,1.2735,1.274,1.2738,1.2669,1.2725,1.2724,1.2724,1.2724,1.2723,1.28,1.2808,1.2802,1.2805,1.2802,1.2801,1.2807,1.2798,1.2801,1.2801,1.2791,1.2797,1.2791,1.2788,1.2785,1.2789,1.2779,1.2785,1.2786,1.2788,1.2791,1.2741,1.2789,1.2789,1.2789,1.2789,1.2789,0,1.285,1.2846,1.2849,1.2847,1.285,1.2836,1.2833,1.2836,1.2842,1.2838,1.284,1.2844,1.2847,1.2837,1.2838,1.2844,1.2836,1.2844,1.2843,1.2843,1.28,1.2796,1.285,1.285,1.285,1.285,1.285,1.285,1.2876,1.2889,1.2881,1.2892,1.2887,1.2893,1.2893,1.2892,1.2889,1.2895,1.2898,1.2891,1.2885,1.2886,1.2888,1.2885,1.2886,1.2897,1.2891,1.2852,1.2846,1.284,1.2836,1.2897,1.2897,1.2933,1.2933,1.2934]},{"header":{"parameterUnit":"m.s-1","parameterCategory":1,"la1":30.2991,"la2":30.254,"lo1":-89.0895,"lo2":-89.0444,"dy":0.0017,"dx":0.0017,"nx":28,"ny":28,"refTime":"2024-03-26T09:00:00:Z","depth":0,"parameterNumber":3,"parameterNumberName":"V-component_of_WINDS"},"data":[0,0,0,0,0,0,0,0,0,0,0,0,0,0,0,0,0,0,0,0,0,0,0,0,0,0,0,0,0,0,0,0,0,0,0,0,0,0,0,0,0,0,0,0,0,0,0,0,0,0,0,0,0,0,0,0,0,0,-3.1858,-3.186,0,-3.2066,-3.2069,-3.2071,-3.2095,-3.2093,-3.2091,-3.2089,-3.2301,-3.2308,-3.2316,0,0,0,0,0,0,0,0,0,0,0,0,0,-3.1482,-3.1489,-3.1858,-3.1861,-3.1863,-3.2066,-3.2069,-3.2072,-3.2095,-3.2093,-3.209,-3.2088,-3.2298,-3.2307,-3.2316,0,0,0,0,0,0,0,0,0,0,0,0,0,-3.1663,-3.1491,-3.1858,-3.1899,-3.1905,-3.2065,-3.2069,-3.2072,-3.2096,-3.2093,-3.2089,-3.2087,-3.2295,-3.2306,-3.2318,-3.245,0,0,-3.2352,-3.2357,0,0,0,0,0,0,0,0,-3.1653,-3.1677,-3.1891,-3.1897,-3.1904,-3.2051,-3.2014,-3.2199,-3.2096,-3.2023,-3.2089,-3.2085,-3.222,-3.2238,-3.2284,-3.246,-3.2469,-3.2353,-3.236,-3.2365,-3.2368,0,0,0,0,0,0,0,-3.164,-3.1668,-3.194,-3.1894,-3.1902,-3.1908,-3.193,-3.2049,-3.2137,-3.2029,-3.2032,-3.2056,-3.2223,-3.2273,-3.2289,-3.2472,-3.2353,-3.2363,-3.237,-3.2375,-3.2772,-3.2775,0,0,0,0,0,0,-3.162,-3.1657,-3.1934,-3.1947,-3.1768,-3.1917,-3.1942,-3.2007,-3.2136,-3.2152,-3.2058,-3.2056,-3.2255,-3.2275,-3.2296,-3.2462,-3.2365,-3.2376,-3.2382,-3.2768,-3.2772,-3.2776,0,0,0,0,0,0,-3.1612,-3.1644,-3.1925,-3.1803,-3.1839,-3.1927,-3.2,-3.2013,-3.2062,-3.2158,-3.2173,-3.2093,-3.2253,-3.228,-3.2413,-3.247,-3.2381,-3.2391,-3.2763,-3.2769,-3.2774,-3.2793,0,0,0,0,0,0,-3.1601,-3.1641,-3.1692,-3.1804,-3.1846,-3.2038,-3.2003,-3.2019,-3.2082,-3.2081,-3.2194,-3.2209,-3.2253,-3.2396,-3.2424,-3.2484,-3.24,-3.2759,-3.2766,-3.2773,-3.2788,-3.2799,-3.2808,0,0,0,0,0,-3.1587,-3.1688,-3.1694,-3.1728,-3.1911,-3.2041,-3.2065,-3.2113,-3.2086,-3.2139,-3.22,-3.2206,-3.2459,-3.2409,-3.2441,-3.2505,-3.2755,-3.2764,-3.2772,-3.2783,-3.2797,-3.2808,0,0,0,0,0,0,-3.1579,-3.1703,-3.1712,-3.1852,-3.1936,-3.2045,-3.2112,-3.2125,-3.2218,-3.2213,-3.2269,-3.2294,-3.2425,-3.2478,-3.242,-3.2642,-3.2605,-3.262,-3.2602,-3.2616,-3.2625,-3.261,-3.241,0,0,0,0,0,-3.1594,-3.169,-3.1793,-3.1906,-3.1948,-3.2023,-3.2081,-3.2111,-3.2201,-3.2236,-3.2307,-3.2394,-3.2493,-3.2557,-3.2653,-3.2796,-3.2822,-3.2856,-3.2866,-3.2874,-3.2886,-3.2968,-3.2985,-3.2804,-3.2804,-3.2804,0,0,-3.1625,-3.1705,-3.1761,-3.1907,-3.1975,-3.2074,-3.2053,-3.2157,-3.223,-3.2252,-3.2382,-3.2437,-3.2538,-3.2676,-3.2741,-3.2725,-3.2943,-3.2884,-3.289,-3.2899,-3.2979,-3.2996,-3.3011,-3.281,-3.2809,-3.2808,0,0,-3.1732,-3.1801,-3.1905,-3.1975,-3.208,-3.2129,-3.2154,-3.2263,-3.2301,-3.2432,-3.2451,-3.254,-3.2709,-3.278,-3.2839,-3.2976,-3.2986,-3.3006,-3.3059,-3.3138,-3.3152,-3.3165,-3.3216,-3.3234,-3.3018,-3.3018,-3.3018,0,-3.1758,-3.1906,-3.1956,-3.2061,-3.2125,-3.2151,-3.2257,-3.2322,-3.2453,-3.2497,-3.2477,-3.2692,-3.2761,-3.2918,-3.2952,-3.2998,-3.3029,-3.2993,-3.3146,-3.316,-3.3173,-3.3222,-3.3241,-3.302,-3.302,-3.302,-3.302,0,-3.1933,-3.2037,-3.2108,-3.2235,-3.2307,-3.2412,-3.2478,-3.2546,-3.257,-3.2622,-3.2757,-3.2841,-3.2956,-3.2996,-3.3019,-3.3157,-3.3144,-3.3135,-3.3099,-3.3191,-3.3238,-3.3257,-3.3023,-3.3022,-3.3022,-3.3021,0,0,-3.204,-3.2196,-3.2221,-3.228,-3.2399,-3.248,-3.2587,-3.2701,-3.2758,-3.2848,-3.294,-3.3084,-3.3077,-3.3143,-3.3176,-3.3245,-3.3352,-3.3228,-3.3231,-3.3249,-3.3511,-3.3518,-3.3539,-3.3358,-3.3362,-3.3365,-3.3503,0,-3.2162,-3.2353,-3.2403,-3.2566,-3.2663,-3.2689,-3.2783,-3.2866,-3.2918,-3.3009,-3.3066,-3.3168,-3.315,-3.3191,-3.326,-3.3324,-3.3405,-3.3314,-3.3446,-3.345,-3.3421,-3.3564,-3.3571,-3.3697,-3.3522,-3.3525,-3.3527,0,-3.2329,-3.2425,-3.2598,-3.2707,-3.2749,-3.2832,-3.2942,-3.3028,-3.3124,-3.3157,-3.3233,-3.3259,-3.3373,-3.3331,-3.3489,-3.3426,-3.3483,-3.3522,-3.3529,-3.3543,-3.3494,-3.3584,-3.3738,-3.3758,-3.3556,-3.3554,-3.3552,0,-3.2392,-3.2563,-3.269,-3.274,-3.2869,-3.2928,-3.2984,-3.3077,-3.3144,-3.3239,-3.3283,-3.339,-3.345,-3.3533,-3.3588,-3.3552,-3.3743,-3.3704,-3.3774,-3.3773,-3.3814,-3.381,-3.3981,-3.3848,-3.3848,-3.3847,-3.3847,0,-3.2524,-3.2629,-3.272,-3.2798,-3.2917,-3.2974,-3.3091,-3.3148,-3.3232,-3.3322,-3.3351,-3.3435,-3.3503,-3.3597,-3.3641,-3.3767,-3.3792,-3.3823,-3.3834,-3.3822,-3.3818,-3.386,-3.3853,-3.3853,-3.3851,-3.385,-3.385,0,-3.2613,-3.2679,-3.2819,-3.2931,-3.2962,-3.3045,-3.3142,-3.3219,-3.3273,-3.3387,-3.3417,-3.3501,-3.3614,-3.3677,-3.3818,-3.3848,-3.3988,-3.3994,-3.3956,-3.3961,-3.4028,-3.4022,-3.4233,-3.4264,-3.4109,-3.411,-3.4111,0,-3.2693,-3.2776,-3.2898,-3.2961,-3.3019,-3.3119,-3.3188,-3.3247,-3.3317,-3.3435,-3.3498,-3.3612,-3.3707,-3.3885,-3.3959,-3.4068,-3.4077,-3.4144,-3.4094,-3.408,-3.4081,-3.4076,-3.4085,-3.4153,-3.4154,-3.4155,-3.4156,0,-3.2829,-3.2858,-3.2956,-3.3066,-3.3147,-3.3236,-3.3324,-3.3374,-3.3449,-3.3526,-3.3642,-3.3716,-3.3861,-3.3974,-3.409,-3.4149,-3.4166,-3.4171,-3.4194,-3.4182,-3.4158,-3.4174,-3.3981,-3.4166,-3.4165,-3.4165,-3.4164,-3.4164,-3.2918,-3.2993,-3.3092,-3.32,-3.3274,-3.3356,-3.3436,-3.35,-3.3598,-3.3721,-3.375,-3.3873,-3.397,-3.4126,-3.4189,-3.4286,-3.4274,-3.4305,-3.4314,-3.4321,-3.4325,-3.4142,-3.4307,-3.4306,-3.4306,-3.4306,-3.4306,0,-3.3057,-3.3122,-3.3222,-3.3346,-3.3432,-3.3441,-3.354,-3.3611,-3.3719,-3.3808,-3.3901,-3.4036,-3.4147,-3.4231,-3.4345,-3.4407,-3.4418,-3.4435,-3.4431,-3.4445,-3.4328,-3.4298,-3.4424,-3.4424,-3.4424,-3.4424,-3.4424,-3.4424,-3.3139,-3.3268,-3.3309,-3.3475,-3.354,-3.3661,-3.3717,-3.3794,-3.3866,-3.4015,-3.4108,-3.4162,-3.425,-3.4372,-3.4475,-3.4497,-3.4538,-3.4554,-3.4578,-3.4466,-3.4453,-3.4441,-3.4414,-3.4562,-3.4563,-3.4688,-3.4689,-3.469]}]]